When you browse on this site, cookies collect data to enhance your experience and personalize the content and advertising you see.
Visit our Privacy Policy to learn more. By continuing to use the site, you agree to this use of cookies and data.
EN

Hourly Weather Kota

Today, 12 August, Wednesday

Time Temperature Precipitation Wind Pressure Humidity
00:00 +28°C° 0.3 mm 4 mps 728 mmHg 90%
01:00 +28°C° 0.3 mm 3 mps 728 mmHg 90%
02:00 +28°C° 0.3 mm 3 mps 727 mmHg 89%
03:00 +28°C° 0.4 mm 3 mps 728 mmHg 89%
04:00 +28°C° 0.4 mm 3 mps 728 mmHg 90%
05:00 +28°C° 0 mm 3 mps 728 mmHg 90%
06:00 +29°C° 0.9 mm 4 mps 728 mmHg 88%
07:00 +29°C° 0.9 mm 4 mps 728 mmHg 86%
08:00 +29°C° 0.9 mm 4 mps 728 mmHg 85%
09:00 +29°C° 0.1 mm 4 mps 728 mmHg 84%
10:00 +30°C° 0.1 mm 4 mps 728 mmHg 83%
11:00 +30°C° 0 mm 4 mps 729 mmHg 81%
12:00 +32°C° 0.6 mm 4 mps 728 mmHg 78%
13:00 +33°C° 0.6 mm 4 mps 727 mmHg 74%
14:00 +34°C° 0.6 mm 3 mps 727 mmHg 70%
15:00 +34°C° 0.1 mm 3 mps 727 mmHg 70%
16:00 +34°C° 0.1 mm 3 mps 726 mmHg 69%
17:00 +34°C° 0 mm 3 mps 726 mmHg 68%
18:00 +33°C° 0.4 mm 3 mps 727 mmHg 71%
19:00 +31°C° 0.4 mm 3 mps 727 mmHg 75%
20:00 +31°C° 0.4 mm 2 mps 728 mmHg 78%
21:00 +30°C° 0.1 mm 3 mps 728 mmHg 79%
22:00 +30°C° 0.1 mm 3 mps 728 mmHg 81%
23:00 +30°C° 0.1 mm 4 mps 728 mmHg 82%

Tomorrow, 13 August, Thursday

Time Temperature Precipitation Wind Pressure Humidity
00:00 +29°C° 0.4 mm 4 mps 727 mmHg 83%
01:00 +29°C° 0.4 mm 3 mps 727 mmHg 84%
02:00 +29°C° 0.4 mm 3 mps 726 mmHg 85%
03:00 +29°C° 0.2 mm 3 mps 726 mmHg 86%
04:00 +29°C° 0.2 mm 3 mps 726 mmHg 87%
05:00 +28°C° 0.2 mm 3 mps 726 mmHg 89%
06:00 +29°C° 0.2 mm 4 mps 726 mmHg 87%
07:00 +30°C° 0.2 mm 4 mps 727 mmHg 85%
08:00 +30°C° 0.2 mm 4 mps 727 mmHg 82%
09:00 +31°C° 1.8 mm 3 mps 727 mmHg 81%
10:00 +31°C° 1.8 mm 3 mps 727 mmHg 79%
11:00 +33°C° 1.8 mm 3 mps 727 mmHg 77%
12:00 +33°C° 2.2 mm 3 mps 726 mmHg 76%
13:00 +34°C° 2.2 mm 2 mps 726 mmHg 74%
14:00 +34°C° 2.2 mm 2 mps 725 mmHg 73%
15:00 +33°C° 2.1 mm 3 mps 725 mmHg 78%
16:00 +30°C° 2.1 mm 3 mps 725 mmHg 84%
17:00 +29°C° 2.1 mm 3 mps 724 mmHg 89%
18:00 +29°C° 0.8 mm 3 mps 725 mmHg 90%
19:00 +29°C° 0.8 mm 2 mps 725 mmHg 90%
20:00 +29°C° 0.8 mm 2 mps 725 mmHg 91%
21:00 +28°C° 1.4 mm 2 mps 726 mmHg 91%
22:00 +28°C° 1.4 mm 3 mps 726 mmHg 91%
23:00 +28°C° 1.4 mm 3 mps 726 mmHg 91%

Day after tomorrow, 14 August, Friday

Time Temperature Precipitation Wind Pressure Humidity
00:00 +28°C° 0.6 mm 3 mps 726 mmHg 91%
01:00 +28°C° 0.6 mm 3 mps 725 mmHg 92%
02:00 +28°C° 0.6 mm 3 mps 725 mmHg 92%
03:00 +28°C° 0.7 mm 3 mps 725 mmHg 91%
04:00 +28°C° 0.7 mm 3 mps 725 mmHg 90%
05:00 +28°C° 0.7 mm 3 mps 725 mmHg 90%
06:00 +28°C° 0.4 mm 4 mps 725 mmHg 89%
07:00 +29°C° 0.4 mm 4 mps 726 mmHg 87%
08:00 +29°C° 0.4 mm 4 mps 726 mmHg 86%
09:00 +29°C° 0.5 mm 5 mps 726 mmHg 85%
10:00 +30°C° 0.5 mm 5 mps 726 mmHg 83%
11:00 +30°C° 0.5 mm 6 mps 726 mmHg 82%
12:00 +30°C° 0.9 mm 6 mps 726 mmHg 81%
13:00 +32°C° 0.9 mm 5 mps 725 mmHg 80%
14:00 +32°C° 0.9 mm 5 mps 725 mmHg 79%
15:00 +32°C° 1.1 mm 4 mps 725 mmHg 81%
16:00 +30°C° 1.1 mm 4 mps 724 mmHg 83%
17:00 +30°C° 1.1 mm 4 mps 724 mmHg 85%
18:00 +29°C° 0.4 mm 3 mps 724 mmHg 86%
19:00 +29°C° 0.4 mm 3 mps 725 mmHg 88%
20:00 +29°C° 0.4 mm 3 mps 725 mmHg 89%
21:00 +29°C° 0.1 mm 3 mps 725 mmHg 89%
22:00 +29°C° 0.1 mm 3 mps 725 mmHg 88%
23:00 +29°C° 0.1 mm 3 mps 725 mmHg 88%

15 August, Saturday

Time Temperature Precipitation Wind Pressure Humidity
00:00 +28°C° 0.1 mm 3 mps 725 mmHg 88%
01:00 +28°C° 0.1 mm 3 mps 725 mmHg 88%
02:00 +28°C° 0.1 mm 3 mps 724 mmHg 88%
03:00 +28°C° 0.3 mm 3 mps 724 mmHg 88%
04:00 +28°C° 0.3 mm 3 mps 724 mmHg 89%
05:00 +28°C° 0.3 mm 3 mps 724 mmHg 90%
06:00 +28°C° 0.1 mm 3 mps 725 mmHg 88%
07:00 +28°C° 0.1 mm 3 mps 725 mmHg 87%
08:00 +29°C° 0.1 mm 3 mps 726 mmHg 86%
09:00 +29°C° 0.4 mm 3 mps 726 mmHg 83%
10:00 +30°C° 0.4 mm 3 mps 726 mmHg 80%
11:00 +31°C° 0.4 mm 3 mps 726 mmHg 77%
12:00 +33°C° 1 mm 3 mps 725 mmHg 74%
13:00 +33°C° 1 mm 3 mps 725 mmHg 71%
14:00 +34°C° 1 mm 2 mps 724 mmHg 68%
15:00 +33°C° 2.3 mm 3 mps 724 mmHg 73%
16:00 +31°C° 2.3 mm 3 mps 724 mmHg 78%
17:00 +30°C° 2.3 mm 3 mps 724 mmHg 84%
18:00 +30°C° 1.3 mm 3 mps 724 mmHg 84%
19:00 +30°C° 1.3 mm 3 mps 725 mmHg 85%
20:00 +30°C° 1.3 mm 3 mps 725 mmHg 86%
21:00 +29°C° 1.2 mm 4 mps 725 mmHg 87%
22:00 +29°C° 1.2 mm 4 mps 725 mmHg 88%
23:00 +28°C° 1.2 mm 5 mps 726 mmHg 90%

16 August, Sunday

Time Temperature Precipitation Wind Pressure Humidity
00:00 +28°C° 0.6 mm 5 mps 725 mmHg 90%
01:00 +28°C° 0.6 mm 5 mps 725 mmHg 90%
02:00 +28°C° 0.6 mm 5 mps 725 mmHg 90%
03:00 +28°C° 0.3 mm 5 mps 725 mmHg 90%
04:00 +28°C° 0.3 mm 5 mps 725 mmHg 90%
05:00 +28°C° 0.3 mm 5 mps 725 mmHg 90%
06:00 +28°C° 0.3 mm 5 mps 725 mmHg 89%
07:00 +28°C° 0.3 mm 5 mps 726 mmHg 88%
08:00 +29°C° 0.3 mm 5 mps 726 mmHg 87%
09:00 +29°C° 0.5 mm 5 mps 726 mmHg 86%
10:00 +29°C° 0.5 mm 5 mps 726 mmHg 84%
11:00 +30°C° 0.5 mm 5 mps 727 mmHg 83%
12:00 +30°C° 0.4 mm 5 mps 726 mmHg 81%
13:00 +32°C° 0.4 mm 5 mps 726 mmHg 78%
14:00 +33°C° 0.4 mm 5 mps 725 mmHg 75%
15:00 +33°C° 1.2 mm 4 mps 725 mmHg 77%
16:00 +32°C° 1.2 mm 4 mps 725 mmHg 79%
17:00 +32°C° 1.2 mm 4 mps 725 mmHg 81%
18:00 +30°C° 0.9 mm 4 mps 725 mmHg 84%
19:00 +30°C° 0.9 mm 4 mps 725 mmHg 86%
20:00 +29°C° 0.9 mm 4 mps 726 mmHg 89%
21:00 +29°C° 0 mm 4 mps 726 mmHg 89%
22:00 +29°C° 0 mm 4 mps 726 mmHg 89%
23:00 +28°C° 0 mm 4 mps 726 mmHg 89%

17 August, Monday

Time Temperature Precipitation Wind Pressure Humidity
00:00 +28°C° 0.4 mm 4 mps 726 mmHg 89%
01:00 +28°C° 0.4 mm 5 mps 726 mmHg 89%
02:00 +28°C° 0.4 mm 5 mps 725 mmHg 89%
03:00 +27°C° 1 mm 4 mps 725 mmHg 90%
04:00 +27°C° 1 mm 4 mps 725 mmHg 90%
05:00 +27°C° 1 mm 4 mps 725 mmHg 90%
06:00 +27°C° 0.4 mm 4 mps 726 mmHg 89%
07:00 +28°C° 0.4 mm 4 mps 726 mmHg 89%
08:00 +28°C° 0.4 mm 4 mps 727 mmHg 88%
09:00 +29°C° 0.1 mm 5 mps 727 mmHg 85%
10:00 +30°C° 0.1 mm 5 mps 727 mmHg 83%
11:00 +30°C° 0.1 mm 5 mps 727 mmHg 80%
12:00 +32°C° 1 mm 5 mps 727 mmHg 79%
13:00 +32°C° 1 mm 5 mps 726 mmHg 77%
14:00 +33°C° 1 mm 5 mps 725 mmHg 75%
15:00 +32°C° 2.1 mm 4 mps 725 mmHg 78%
16:00 +31°C° 2.1 mm 3 mps 725 mmHg 81%
17:00 +30°C° 2.1 mm 3 mps 725 mmHg 85%
18:00 +29°C° 2.8 mm 3 mps 725 mmHg 87%
19:00 +29°C° 2.8 mm 3 mps 725 mmHg 89%
20:00 +28°C° 2.8 mm 3 mps 725 mmHg 91%
21:00 +28°C° 1.2 mm 3 mps 726 mmHg 91%
22:00 +28°C° 1.2 mm 4 mps 726 mmHg 91%
23:00 +28°C° 1.2 mm 5 mps 726 mmHg 92%
Show more